Location: *
(46.4000°N, 12.6667°E)
Time: 00:48:12
(UTC+00:00)

CZ-4C R/B - Pass Details

Date: 23 June 2021
Orbit: 606 x 1396 km, 63.4° (Epoch: 30 July)

Event Time Altitude Azimuth Distance (km) Brightness Sun altitude
Exits shadow 23:50:42 - 122° (ESE) 2,280 4.2 -19.6°
Maximum altitude 23:52:23 10° 103° (ESE) 2,239 4.4 -19.6°
Drops below altitude 10° 23:52:32 10° 101° (E) 2,245 4.4 -19.6°
Sets 23:58:12 0° 55° (NE) 3,430 6.1 -19.4°
